SL-16 DEB, 20626

Orbit data source: Space-Track

SL-16 DEB, 20626 is space debris in LEO originally from a launch on Tue, 22 May 1990 UTC launched from the Tyuratam Missile And Space Complex (TTMTR). Debris objects in space refer to the collection of defunct objects orbiting the Earth. Examples of debris include non-operational satellites, rocket bodies, and fragments generated from explosions, collisions, or faulty payload assembly.

Loading next visibility...
Identifier
20626, 1990-046C
Orbit
LEO
Country
Flag of CISCIS
Related business
Manufacturer
Yuzhnoe
Mission
Spacecraft
Bus & Motor
SEP MOTOR COVER, Unknown motor
Mass
~0 kg wet, ~1 kg dry
Launch date (UTC)
1990-05-22 (36 years ago)
Launch vehicle
Unknown
Launch site
Tyuratam Missile And Space Complex (TTMTR)
Object type
Payload
Rocket body
Debris
Shape & HBR
Unknown shape, 0.1 m
Radar Cross Section
Small (<0.1 m²)

Expand to show TLE details & history
Last TLE update: 11 hours ago

TLE from 11 hours ago
0 SL-16 DEB
1 20626U 90046C   26093.83576508  .00000104  00000-0  13703-3 0  9999
2 20626  71.0188 351.8298 0207995 249.7212 187.1050 13.72949614795894
Epoch: 2026-04-03T20:03Z
TLE epoch observation values (Epoch: 2026-04-03T20:03:30.102Z)
Latitude
66.97047°
Longitude
-87.59366°
Altitude
1,152.166 km
Speed
7.208 km/s
True Right ascension
03h 01m 47s
True Declination
66° 51' 10"
Sunlit
Object was in daylight at epoch
Visualization orbit readout
Latitude
Unknown
Longitude
Unknown
Altitude
Unknown
Speed
Unknown
Apparent Right ascension
Unknown
Apparent Declination
Unknown
Sunlit
N/A
Visualization observer readout
Local Sidereal Time
13:16:12
Azimuth
Unknown
Elevation
Unknown
Doppler factor
Unknown
Orbital elements
Apogee altitude
1,140.154 km
Perigee altitude
833.773 km
Semi-major axis
7,365.101 km
Eccentricity
0.0208
Inclination
71.0188°
RAAN
351.8298°
Arg. of periapsis
249.7212°
True anomaly
186.81762°
Mean anomaly
187.105°
Eccentric anomaly
186.96058°
Mean motion
3.4338 °/min
Orbital period
104.84 mins
BSTAR
0.00013703
Loading maneuver chart data...
Computing Atmospheric mass density...
Loading historical data...
Loading historical data...
Loading historical data...
Loading historical data...
Loading historical data...
Loading historical data...
Loading historical data...
Other satellites on launch #46 in the year 1990 (1990-05-22 UTC)

Documentation

Showing up to 5 results
|